Home   Weather   Rohrbach   Past weeks

Flag for Austria Past Weather in Rohrbach, Upper Austria, Austria — Yesterday and Last 2 Weeks

Now
44 °F

Quite cool.


Feels Like: 41 °F
Forecast: 23 / 53 °F
Wind: 5 mph from West

Location: Rohrbach

Current Time: Apr 23, 2017 at 3:59:07 pm

Latest Report: Apr 23, 2017 at 3:00 pm


Visibility: N/A

Pressure: 30.18 "Hg (28.03 "Hg at 605m altitude)

Humidity: 51%

Dew Point: 27 °F

Location of RohrbachLocation

Past Weather in Rohrbach — Graph

°F

Rohrbach Temperature Yesterday

Maximum temperature yesterday: 47 °F (at 3:00 pm)
Minimum temperature yesterday: 39 °F (at 11:00 pm)
Average temperature yesterday: 43 °F

High & Low Weather Summary for the Past Weeks

 TemperatureHumidityPressure
High68 °F (Apr 10, 3:00 pm)95% (Apr 9, 7:00 am)30.58 "Hg (Apr 9, 7:00 am)
Low24 °F (Apr 21, 6:00 am)38% (Apr 10, 3:00 pm)29.85 "Hg (Apr 13, 6:00 am)
Average43 °F71%30.16 "Hg
* Reported Apr 8 2:00 pm — Apr 23 2:00 pm, Rohrbach, Weather by CustomWeather, © 2017

Note: Actual official high and low records may vary slightly from our data, if they occured in-between our weather recording intervals... More about our weather records

Advertising

Rohrbach Weather History for the Previous 24 Hours

Scroll right to see more
 ConditionsComfort  
Time TempWeatherWind HumidityBarometerVisibility
2:00 pm
Sun, Apr 23
N/APassing clouds.9 mphN/AN/A9 mi
1:00 pm43 °FQuite cool.6 mph52%30.19 "HgN/A
12:00 pm40 °FQuite cool.5 mph56%30.22 "HgN/A
11:00 am42 °FQuite cool.3 mph54%30.20 "HgN/A
10:00 am41 °FQuite cool.3 mph67%30.20 "HgN/A
9:00 am38 °FChilly.2 mph78%30.21 "HgN/A
8:00 amN/APassing clouds.10 mphN/AN/A5 mi
7:00 am36 °FChilly.2 mph84%30.20 "HgN/A
6:00 am36 °FChilly.1 mph82%30.18 "HgN/A
5:00 am36 °FChilly.1 mph87%30.17 "HgN/A
4:00 am36 °FChilly.1 mph89%30.16 "HgN/A
3:00 am36 °FChilly.1 mph90%30.16 "HgN/A
2:00 am36 °FChilly.1 mph91%30.17 "HgN/A
1:00 am36 °FChilly.No wind90%30.17 "HgN/A
12:00 am38 °FChilly.1 mph84%30.16 "HgN/A
11:00 pm
Sat, Apr 22
39 °FChilly.1 mph79%30.15 "HgN/A
10:00 pm39 °FChilly.3 mph78%30.15 "HgN/A
8:00 pm42 °FQuite cool.1 mph89%30.10 "HgN/A
7:00 pm42 °FSprinkles. Cloudy.3 mph88%30.10 "HgN/A
6:00 pm44 °FFog.5 mph88%30.09 "HgN/A
5:00 pm45 °FCool.3 mph86%30.07 "HgN/A
4:00 pm46 °FCool.3 mph79%30.09 "HgN/A
3:00 pm47 °FCool.3 mph69%30.09 "HgN/A
Weather by CustomWeather, © 2017

See weather overviewHow to use our weather pages